Regional Weather Roundup
Issued by NWS Sterling, VA

Home | Current Version | Previous Version | Text Only | Print | Product List | Glossary Off
Versions: 1 2 3 4 5 6 7 8 9 10 11 12 13 14 15 16 17 18 19 20 21 22 23 24 25 26 27 28 29 30 31 32 33 34 35 36 37 38 39 40 41 42 43 44 45 46 47 48 49 50

000
ASUS41 KLWX 201910
RWRLWX

REGIONAL WEATHER ROUNDUP
NATIONAL WEATHER SERVICE BALTIMORE MD/WASHINGTON DC
300 PM EDT WED AUG 20 2014

Note: "FAIR" indicates few or no clouds below 12,000 feet
with no significant weather and/or obstructions to visibility.
 TC=TEMPERATURE CELSIUS

 * =Non NWS site. Station does not report precipitation (e.g. rain,
    snow, etc.), thunder, or fog.

DCZ001-MDZ009-015-VAZ040>042-051-053>054-202000-
WASHINGTON METRO
  /KDAA//-FT BELVOIR

CITY           SKY/WX    TMP DP  RH WIND       PRES   REMARKS
WASHINGTON NAT MOSUNNY   89  61  38 S13       29.95S
DULLES         PTSUNNY   82  63  52 S10       29.95S
ANDREWS AFB    MOSUNNY   84  63  48 SE8       29.95F
QUANTICO       MOSUNNY   83  66  56 S7        29.95F
COLLEGE PARK*  CLOUDY    86  63  45 SE8       29.95R
LEESBURG*      CLOUDY    86  68  54 S12G18    29.95F
GAITHERSBURG*  CLOUDY    81  64  57 SE9       30.00R

$$

MDZ006>007-011-014-202000-
BALTIMORE METRO

CITY           SKY/WX    TMP DP  RH WIND       PRES   REMARKS
BWI AIRPORT    PTSUNNY   83  57  41 S9        29.96S
MD SCIENCE CTR   N/A     82  61  48 MISG      29.96S
MARTIN STATE   MOSUNNY   82  70  65 SE6       29.97F
ANNAPOLIS      SUNNY     81  63  54 SE9       29.96F
FORT MEADE*    SUNNY     82  59  44 SE8       29.98S

$$

MDZ012-015-019>023-202000-
MARYLAND EASTERN SHORE

CITY           SKY/WX    TMP DP  RH WIND       PRES   REMARKS
OCEAN CITY     MOSUNNY   79  67  66 VRB6      29.99S
SALISBURY      SUNNY     85  63  47 E8        29.96F
BAY BRIDGE AP*   N/A     82  59  44 S6        29.96F
CAMBRIDGE*     MOSUNNY   84  63  48 SE8       29.95F
EASTON*        MOSUNNY   86  64  48 S8        29.99F

$$

MDZ017>025-202000-
SOUTHERN MARYLAND

CITY           SKY/WX    TMP DP  RH WIND       PRES   REMARKS
PATUXENT RIVER MOSUNNY   81  64  56 SE9       29.96F
ST INIGOES     SUNNY     80  64  58 VRB7      29.96F
LEONARDTOWN*   SUNNY     82  61  47 SE10      29.97F

$$

MDZ003>005-202000-
NORTH CENTRAL MARYLAND

CITY           SKY/WX    TMP DP  RH WIND       PRES   REMARKS
FREDERICK*     PTSUNNY   82  66  57 S9        29.98R
HAGERSTOWN APT TSTM      73  71  93 CALM      29.97R FOG
WESTMINSTER*   MOSUNNY   84  64  51 S13       29.98R

$$

MDZ501>502-202000-
WESTERN MARYLAND

CITY           SKY/WX    TMP DP  RH WIND       PRES   REMARKS
OAKLAND*       PTSUNNY   72  61  68 W10G17    30.05S
CUMBERLAND*    PTSUNNY   90  68  48 W3        29.96F HX  93

$$

VAZ025>031-202000-
SHENANDOAH VALLEY

CITY           SKY/WX    TMP DP  RH WIND       PRES   REMARKS
WINCHESTER*    PTSUNNY   77  72  83 E3        29.96F
STAUNTON*      PTSUNNY   84  68  58 S9        29.98F

$$

WVZ021-048>050-054>055-202000-
EASTERN WEST VIRGINIA PANHANDLE

CITY           SKY/WX    TMP DP  RH WIND       PRES   REMARKS
MARTINSBURG    CLOUDY    75  69  81 S3        29.97S
PETERSBURG*    NOT AVBL

$$

VAZ036>039-050-202000-
CENTRAL FOOTHILLS

CITY           SKY/WX    TMP DP  RH WIND       PRES   REMARKS
CHARLOTTESVILL PTSUNNY   83  69  62 S12       29.94F
ORANGE*        MOSUNNY   86  68  54 E10G16    29.96S

$$

VAZ055>057-202000-
NORTH AND CENTRAL PIEDMONT

CITY           SKY/WX    TMP DP  RH WIND       PRES   REMARKS
FREDERICKSBRG* SUNNY     89  66  47 S10       29.93F HX  91
STAFFORD*      MOSUNNY   84  68  58 SE7       29.98F

$$

NCZ024-NYZ072-PAZ021-071-VAZ022-071-202000-
OTHER REGIONAL OBSERVATIONS

CITY           SKY/WX    TMP DP  RH WIND       PRES   REMARKS
NEW YORK CITY  MOSUNNY   83  58  42 MISG      30.00F
PHILADELPHIA   MOSUNNY   84  63  49 S5        29.96F
PITTSBURGH     PTSUNNY   78  65  63 SW8       29.95S
ROANOKE        MOSUNNY   83  67  58 SW7       30.01F
RICHMOND       MOSUNNY   86  65  49 S9        29.94F
RALEIGH        MOSUNNY   87  71  58 SE7       29.96F HX  93

$$

ANZ530>537-202000-
MARINE OBSERVATIONS

STATION/POSITION TIME  TEMP    WIND        PRES
                       AIR SEA DIR/SP/G
                 (UTC) (F)     (DEG/KT/KT) (MB)
THOMAS PT LIGHT  1900   78 78  220/  6/  7 1015.2F
BALT KEY BRIDGE  1900   78     110/ 10/ 11 1014.3R
COVE POINT       1900   77     190/ 12/ 14 1014.3F
LEWISETTA        1900   80 80  130/ 11/ 14 1014.1F
SOLOMONS ISLAND  1900      81                N/A
PINEY POINT      1900          140/ 12/ 14   N/A

$$




USA.gov is the U.S. government's official web portal to all federal, state and local government web resources and services.